Current weather by "City, St" or "zip code"  
 
Advertise Here

Current Conditions: George M Bryan Airport, Starkville, MS

Partly Cloudy


82.0 F

Last Updated on Aug 4 2020, 6:15 pm CDT
Humidity: 66%
Wind Speed: N 6.9 mph
Barometer 29.95 in
Dewpoint: 69.8 F
Visibility: 10.00 mi
Precip: --
Heat Index: 86 F
Wind Chill: NA
Current conditions at:

George M Bryan Airport, Starkville, MS (KSTF)

Lat: 33.4331 Lon: 88.8486

Local Radar Image active severe weather and emergency alerts image image weather storm and storm spotter reports image weather observation monitoring service image
Local
Radar
Active
Alerts
Storm Reports Obs
Monitoring

Sign-up For Email & Text Message Weather Alert Notification Services


Advertise Here

Observation History for George M Bryan Airport, Starkville, MS


Time Wind
(mph)
Vis
(mi)
Weather Precip (in) Temperature (F) Relative
Humidity
Wind
Chill
(F)
Heat
Index
(F)
Pressure
Air Dwpt altimeter
(in)
sea level
(mb)
Rmks
6:15 pm CDT N 6.9 10.00 Partly Cloudy -- 82.0 69.8 66% NA 86 29.95 M
5:15 pm CDT N 4.6 10.00 Mostly Cloudy -- 82.0 69.8 66% NA 86 29.95 M
4:15 pm CDT N 0.0 10.00 Partly Cloudy -- 86.0 62.6 46% NA 87 29.95 M
3:55 pm CDT W 5.8 10.00 Partly Cloudy -- 86.0 62.6 46% NA 87 29.96 M
3:15 pm CDT N 0.0 10.00 Partly Cloudy -- 88.0 64.4 46% NA 90 29.96 M
2:15 pm CDT N 0.0 10.00 Partly Cloudy -- 88.0 64.4 46% NA 90 29.97 M
1:15 pm CDT N 0.0 10.00 Partly Cloudy -- 86.0 68.0 55% NA 89 29.99 M
12:15 pm CDT N 0.0 10.00 Mostly Cloudy -- 82.0 68.0 62% NA 85 30.00 M
11:55 am CDT NW 5.8 10.00 Partly Cloudy -- 82.0 69.8 66% NA 86 30.00 M
11:15 am CDT N 0.0 10.00 Fair -- 82.0 68.0 62% NA 85 30.00 M
10:15 am CDT N 0.0 10.00 Fair -- 79.0 68.0 70% NA NA 30.00 M
9:55 am CDT N 0.0 10.00 Fair -- 79.0 69.8 74% NA NA 30.00 M
9:15 am CDT NW 3.5 10.00 Fair -- 77.0 69.8 79% NA NA 30.00 M
8:55 am CDT N 0.0 10.00 Fair -- 73.0 69.8 89% NA NA 30.00 M
8:15 am CDT NW 3.5 10.00 Fair -- 72.0 69.8 94% NA NA 29.99 M
7:15 am CDT N 0.0 10.00 Fair -- 68.0 68.0 100% NA NA 29.98 M
6:15 am CDT N 0.0 10.00 Fair -- 68.0 66.2 94% NA NA 29.96 M
5:15 am CDT N 0.0 10.00 Mostly Cloudy -- 68.0 68.0 100% NA NA 29.95 M
4:15 am CDT N 0.0 10.00 Mostly Cloudy -- 70.0 68.0 94% NA NA 29.95 M
3:15 am CDT N 0.0 10.00 Partly Cloudy -- 66.0 64.4 94% NA NA 29.95 M
2:55 am CDT N 0.0 10.00 Partly Cloudy -- 66.0 64.4 94% NA NA 29.94 M
2:15 am CDT N 0.0 10.00 Fair -- 68.0 68.0 100% NA NA 29.94 M
1:15 am CDT N 0.0 10.00 Fair -- 68.0 68.0 100% NA NA 29.95 M
12:15 am CDT N 0.0 10.00 Fair -- 70.0 68.0 94% NA NA 29.96 M

Regional Weather Observation


Columbus/West Point/Starkville, Golden Triangle Regional Airport, MS (KGTR)

Mostly Cloudy
85.0 F

Monroe County Airport, MS (KM40)

Fair
84.0 F

Columbus Air Force Base, MS (KCBM)

Fair
86.0 F

Tupelo, Tupelo Regional Airport, MS (KTUP)

Partly Cloudy
84.0 F

Oxford, University-Oxford Airport, MS (KUOX)

A Few Clouds
84.0 F

Greenwood, Greenwood-LeFlore Airport, MS (KGWO)

Fair
86.0 F